"Pseudo-MPEC" for ZGBE27B

Created 2018 Apr 29 11:18:09 UT using Find_Orb

Click here for an explanation of pseudo-MPECs

 
 Astrometry: 
     ZGBE27B  C2018 04 12.36414 15 04 33.07 +11 14 21.0          20.1 GUNEOCPG96
     ZGBE27B  C2018 04 12.37450 15 04 43.97 +11 08 55.5          20.6 GUNEOCPG96
     ZGBE27B  C2018 04 12.37967 15 04 49.45 +11 06 13.2          20.0 GUNEOCPG96
     ZGBE27B  C2018 04 12.49140 15 06 45.77 +10 08 41.2          20.1 GUNEOCPG96
     ZGBE27B  C2018 04 12.49163 15 06 46.04 +10 08 34.7          20.6 GUNEOCPG96
     ZGBE27B  C2018 04 12.49186 15 06 46.30 +10 08 27.9          20.5 GUNEOCPG96
     ZGBE27B  C2018 04 12.49209 15 06 46.52 +10 08 20.9          20.2 GUNEOCPG96
     ZGBE27B  C2018 04 13.44329 15 22 53.21 +02 59 18.1                UNEOCPG96
     ZGBE27B  C2018 04 13.44421 15 22 53.83 +02 58 55.2          20.5 GUNEOCPG96
     ZGBE27B  C2018 04 13.44513 15 22 54.53 +02 58 33.5          20.5 GUNEOCPG96
     ZGBE27B  C2018 04 13.44606 15 22 55.23 +02 58 11.2          20.4 GUNEOCPG96
     ZGBE27B KC2018 04 13v3Astrometrya[q1C_xR;mUtN///ei)0l8q/4'l0nSldJW-cU9%I474
     ZGBE27B KC2018 04 13nSwX,t'O#7A;cP)DBredacted;:8u`=ccMVBv%vM]83W@c51**N5474
     ZGBE27B KC2018 04 134rW(0-hf-+)JX:m.?i5V[Ig!fgJa;_u4seeqWxXE?e*i=\K5%;E;474
     ZGBE27B KC2018 04 133*i].PyH%gs\?Q[^pf;_)1v.GU#FpAYg%IJhS#6Yj/o0`QHNEOCP474

Station data:
(474) Mount John Observatory, Lake Tekapo  (S43.987388 E170.464960)  New
   Zealand.  Observers A. C. Gilmore, P. M. Kilmartin. Measurer P. M.
   Kilmartin. 1.0-m f/7.7 reflector + CCD.
(G96) Mt. Lemmon Survey  (N32.442754 W110.788720)  US/Arizona.  Observers E.
   J. Christensen, A. R. Gibbs, A. D. Grauer, R. E. Hill, J. A. Johnson, R.
   A. Kowalski, S. M. Larson, F. C. Shelly. 1.5-m reflector + CCD.

Orbital elements:  ZGBE27B
   Perihelion 2018 Mar 24.934004 +/- 0.00716 TT = 22:24:58 (JD 2458202.434004)
Epoch 2018 Apr 13.0 TT = JDT 2458221.5   Earth MOID: 0.0164   Ma: 0.0314
M   6.04472 +/- 0.015               (J2000 ecliptic)          AutoNEOCP
n   0.31704212 +/- 0.000823         Peri.  146.89905 +/- 0.020
a   2.13005788 +/- 0.00368          Node    33.24962 +/- 0.010
e   0.5334588 +/- 0.000816          Incl.    2.92668 +/- 0.0031
P   3.11                   H 27.6   G  0.15   U  8.0  
q 0.99375956 +/- 3.27e-5    Q 3.26635619 +/- 0.0074
From 15 observations 2018 Apr. 12-13 (30.0 hr); mean residual 0".63
Residuals in arcseconds: 
180412 G96  .33-  .84+    180412 G96  .29+  .87+    180413 G96  .00   .31-    
180412 G96  .27-  .98-    180412 G96  .01-  .91+    180413 474  .81-  .74-    
180412 G96  .57+  1.9-    180413 G96  1.1+  .21+    180413 474  .11-  .69+    
180412 G96  .42-  .09+    180413 G96  .00   .64-    180413 474  .14+  .24+    
180412 G96  .01+  .63+    180413 G96  .06+  .29-    180413 474  .10+  .26+    

Ephemerides (geocentric):
Date (UTC) HH   RA              Dec         delta   r     elong  mag " sig PA
---- -- -- --  ------------   ------------  ------ ------ -----  --- ---- ---
2018 04 29 11  16 27 38.550   -26 40 32.78  .09220 1.0872 149.1 23.8 24.9 151
2018 04 29 12  16 27 40.171   -26 41 35.62  .09240 1.0874 149.1 23.8 24.9 151
2018 04 29 13  16 27 41.778   -26 42 38.15  .09259 1.0876 149.1 23.8 24.9 151
2018 04 29 14  16 27 43.371   -26 43 40.40  .09279 1.0878 149.2 23.8 25.0 151
2018 04 29 15  16 27 44.949   -26 44 42.35  .09298 1.0880 149.2 23.8 25.0 151
2018 04 29 16  16 27 46.512   -26 45 44.00  .09317 1.0882 149.2 23.8 25.0 151
2018 04 29 17  16 27 48.062   -26 46 45.36  .09337 1.0884 149.3 23.9 25.0 151
2018 04 29 18  16 27 49.597   -26 47 46.43  .09356 1.0886 149.3 23.9 25.0 151
2018 04 29 19  16 27 51.118   -26 48 47.22  .09376 1.0888 149.3 23.9 25.1 151
2018 04 29 20  16 27 52.625   -26 49 47.72  .09395 1.0890 149.3 23.9 25.1 151
2018 04 29 21  16 27 54.118   -26 50 47.93  .09415 1.0892 149.4 23.9 25.1 151
2018 04 29 22  16 27 55.598   -26 51 47.86  .09434 1.0894 149.4 23.9 25.1 151
2018 04 29 23  16 27 57.063   -26 52 47.50  .09454 1.0896 149.4 23.9 25.1 151
2018 04 30 00  16 27 58.515   -26 53 46.87  .09473 1.0898 149.5 23.9 25.2 151
2018 04 30 01  16 27 59.952   -26 54 45.96  .09493 1.0900 149.5 23.9 25.2 151
2018 04 30 02  16 28 01.377   -26 55 44.77  .09512 1.0902 149.5 23.9 25.2 151
2018 04 30 03  16 28 02.787   -26 56 43.30  .09532 1.0904 149.5 23.9 25.2 151
2018 04 30 04  16 28 04.184   -26 57 41.56  .09551 1.0906 149.6 23.9 25.2 151
2018 04 30 05  16 28 05.568   -26 58 39.55  .09571 1.0908 149.6 23.9 25.3 151
2018 04 30 06  16 28 06.938   -26 59 37.27  .09590 1.0911 149.6 23.9 25.3 151
2018 04 30 07  16 28 08.295   -27 00 34.71  .09610 1.0913 149.7 23.9 25.3 151
2018 04 30 08  16 28 09.639   -27 01 31.89  .09629 1.0915 149.7 23.9 25.3 151
2018 04 30 09  16 28 10.969   -27 02 28.80  .09649 1.0917 149.7 23.9 25.3 151
2018 04 30 10  16 28 12.286   -27 03 25.45  .09668 1.0919 149.8 23.9 25.4 151
2018 04 30 11  16 28 13.590   -27 04 21.83  .09688 1.0921 149.8 23.9 25.4 151
2018 04 30 12  16 28 14.882   -27 05 17.95  .09707 1.0923 149.8 23.9 25.4 151
2018 04 30 13  16 28 16.160   -27 06 13.81  .09727 1.0925 149.9 23.9 25.4 151
2018 04 30 14  16 28 17.425   -27 07 09.40  .09746 1.0927 149.9 23.9 25.4 151
2018 04 30 15  16 28 18.678   -27 08 04.74  .09766 1.0929 149.9 23.9 25.4 151
2018 04 30 16  16 28 19.917   -27 08 59.83  .09786 1.0931 149.9 23.9 25.5 151
2018 04 30 17  16 28 21.144   -27 09 54.65  .09805 1.0933 150.0 23.9 25.5 151
2018 04 30 18  16 28 22.358   -27 10 49.23  .09825 1.0935 150.0 23.9 25.5 151
2018 04 30 19  16 28 23.560   -27 11 43.55  .09844 1.0938 150.0 24.0 25.5 151
2018 04 30 20  16 28 24.749   -27 12 37.62  .09864 1.0940 150.1 24.0 25.5 151
2018 04 30 21  16 28 25.926   -27 13 31.43  .09884 1.0942 150.1 24.0 25.5 151
2018 04 30 22  16 28 27.090   -27 14 25.00  .09903 1.0944 150.1 24.0 25.6 151
2018 04 30 23  16 28 28.242   -27 15 18.33  .09923 1.0946 150.2 24.0 25.6 151
2018 05 01 00  16 28 29.382   -27 16 11.40  .09942 1.0948 150.2 24.0 25.6 151
2018 05 01 01  16 28 30.509   -27 17 04.23  .09962 1.0950 150.2 24.0 25.6 151
2018 05 01 02  16 28 31.624   -27 17 56.82  .09982 1.0952 150.3 24.0 25.6 151
2018 05 01 03  16 28 32.727   -27 18 49.16  .10001 1.0954 150.3 24.0 25.7 151
2018 05 01 04  16 28 33.818   -27 19 41.27  .10021 1.0956 150.3 24.0 25.7 151
2018 05 01 05  16 28 34.896   -27 20 33.13  .10041 1.0959 150.3 24.0 25.7 151
2018 05 01 06  16 28 35.963   -27 21 24.75  .10060 1.0961 150.4 24.0 25.7 151
2018 05 01 07  16 28 37.018   -27 22 16.14  .10080 1.0963 150.4 24.0 25.7 151
2018 05 01 08  16 28 38.061   -27 23 07.29  .10100 1.0965 150.4 24.0 25.7 151
2018 05 01 09  16 28 39.092   -27 23 58.21  .10119 1.0967 150.5 24.0 25.7 151
2018 05 01 10  16 28 40.112   -27 24 48.89  .10139 1.0969 150.5 24.0 25.8 151